Temp
-4 -2 2 7 9 10 9 10 9 9 9 9 9 9 8 8 9 9 9 10 11 11
-5 -3 -0 5 8 8 9 9 10 9 9 9 9 9 9 9 9 9 9 11 11 11
-7 -4 -2 2 6 8 8 8 8 9 9 9 9 9 9 9 9 9 9 10 10 10
-8 -6 -4 -0 3 6 7 8 7 8 8 9 9 9 8 9 9 9 9 9 10 10
-8 -7 -5 -3 -0 3 5 6 7 7 7 7 7 8 8 8 8 8 8 8 8 8
-10 -8 -6 -4 -2 1 2 4 4 6 6 5 6 7 7 7 7 7 8 8 8 8
-11 -10 -7 -5 -3 -1 1 2 3 3 3 4 4 4 4 5 6 5 5 6 7 6
-12 -11 -8 -6 -4 -3 -1 0 1 2 2 3 4 3 4 3 4 4 4 4 5 5
-12 -11 -10 -7 -6 -4 -3 -2 -1 -0 0 1 1 2 3 3 2 2 4 3 3 2
-13 -12 -11 -9 -6 -5 -4 -3 -2 -2 -1 -1 -1 -1 -0 2 1 1 1 1 1 -0
-14 -13 -11 -10 -8 -6 -5 -4 -3 -2 -2 -1 -1 -1 -1 -0 -0 -1 -1 -1 -1 -1
-15 -14 -12 -11 -10 -7 -6 -5 -4 -2 -2 -1 -2 -1 -2 -2 -2 -2 -2 -2 -1 -0
-15 -14 -13 -12 -10 -9 -7 -5 -5 -3 -2 -2 -2 -2 -2 -2 -2 -3 -3 -2 -2 -2
-15 -15 -13 -12 -11 -10 -8 -6 -5 -5 -4 -3 -3 -3 -3 -3 -3 -3 -3 -3 -3 -2
Height
742 734 728 729 726 724 730 735 743 747 753 758 762 766 772 777 782 787 792 796 802 805
741 735 727 723 726 726 726 731 735 742 747 754 759 764 769 774 780 787 792 798 801 805
747 736 734 720 722 721 726 727 735 737 744 749 756 762 768 773 779 785 791 795 799 803
748 738 730 719 721 720 721 723 732 737 739 744 750 756 763 769 774 780 786 792 797 801
750 740 732 727 722 718 721 724 726 735 738 743 745 750 756 763 771 775 780 786 793 798
753 745 738 731 722 721 719 725 723 731 734 742 745 748 752 758 763 771 778 782 789 793
760 753 744 739 730 723 723 724 723 727 730 738 746 748 754 755 759 767 774 781 785 792
767 758 748 740 735 727 725 723 723 726 732 736 742 749 752 759 760 764 772 782 786 793
772 763 755 746 740 734 731 726 726 727 727 733 740 746 753 757 765 765 768 776 785 794
779 770 762 753 746 741 741 729 734 731 730 733 738 745 750 756 766 769 774 773 779 794
784 778 770 761 754 747 739 739 739 737 737 739 741 743 748 755 765 772 774 781 778 788
793 785 777 769 760 752 749 747 745 743 746 742 743 749 750 754 763 773 778 783 782 788
800 793 787 779 769 764 758 755 751 749 747 746 751 756 753 757 766 774 777 785 786 787
804 799 794 786 777 771 765 761 757 756 756 758 760 760 761 760 765 771 780 785 784 790
Wind_Speed
31 29 21 18 29 42 42 43 42 44 44 43 42 43 42 42 40 39 33 35 29 24
33 31 25 11 25 29 35 38 46 45 46 44 43 43 44 46 44 39 31 31 27 24
32 29 26 15 17 31 32 35 40 48 45 45 44 43 42 42 40 37 35 31 28 23
37 32 30 20 8 24 37 38 38 40 45 48 46 46 45 44 41 40 38 33 30 27
38 36 33 28 15 6 26 34 39 35 35 40 45 48 48 45 42 42 42 40 35 31
39 39 35 30 23 1 15 31 34 34 31 30 37 44 47 46 45 45 42 41 38 37
40 37 35 30 26 10 10 25 30 31 32 31 30 33 34 40 45 40 41 41 40 36
40 37 35 32 28 21 2 14 25 32 31 32 31 30 33 34 39 42 39 35 35 34
40 40 37 34 30 27 17 7 16 25 31 30 31 28 31 32 34 38 42 37 32 30
38 39 38 34 31 30 24 17 8 16 25 28 32 25 25 33 33 35 35 38 37 29
38 38 38 35 32 31 29 23 15 12 20 25 27 28 29 31 31 30 31 34 37 33
35 35 36 35 34 30 29 27 23 15 19 24 25 27 31 34 33 30 33 33 34 35
31 31 32 32 31 28 26 27 27 28 24 24 23 24 28 34 34 28 27 29 30 31
28 28 28 29 30 31 28 28 28 29 26 20 19 19 22 28 29 28 24 24 28 30
Wind_Direction
349 343 334 240 196 187 189 194 196 195 192 189 187 184 182 182 185 191 194 190 184 172
355 350 341 309 218 198 191 193 192 195 194 196 196 193 192 191 194 198 196 185 185 187
355 357 344 347 230 199 195 194 197 193 194 195 196 196 194 195 196 193 189 184 182 178
1 6 356 3 328 205 204 198 199 195 193 193 193 194 194 193 190 189 184 183 180 173
1 7 9 5 349 195 204 199 195 195 192 191 191 191 191 189 187 186 182 179 177 170
357 4 8 10 1 288 197 204 193 191 187 190 189 192 194 192 187 188 188 183 178 172
354 354 7 13 15 8 193 197 189 190 188 189 187 183 183 184 184 181 180 180 178 174
358 355 12 21 24 27 68 185 193 190 185 183 186 184 181 181 179 179 174 174 173 175
4 359 2 17 25 34 37 114 178 185 184 183 189 188 182 178 175 168 166 163 162 165
3 0 357 9 27 31 27 63 128 159 170 175 178 167 172 183 175 167 165 160 157 156
2 360 359 4 18 27 31 42 63 136 151 160 159 163 173 188 184 177 170 167 163 162
0 360 359 2 6 24 28 40 44 86 150 142 144 151 150 160 157 157 161 167 171 177
3 4 360 3 9 20 32 39 48 64 86 114 126 143 146 157 156 152 154 166 168 168
12 3 8 11 21 22 32 42 50 53 70 90 108 118 132 151 148 148 149 153 152 157